Location: Kalberh�ni
(46.4610°N, 7.2453°E)
Time: 05:30:41
(UTC+00:00)

Cosmos 2333 Rocket - Pass Details

Date: 26 October 2021
Orbit: 837 x 865 km, 70.8° (Epoch: 05 December)

Event Time Altitude Azimuth Distance (km) Brightness Sun altitude
Rises 19:40:04 0° 232° (SW) 3,391 5.7 -33.9°
Reaches altitude 10° 19:42:41 10° 240° (WSW) 2,464 5.0 -34.3°
Maximum altitude 19:47:53 37° 307° (NW) 1,305 3.5 -35.1°
Enters shadow 19:48:39 35° 325° (NW) 1,342 3.5 -35.3°
